Weather History for Nome, AK

Change the Weather History Date:

Monday, March 26, 2012

  Actual Average Record
Temperature  
Mean Temperature 9 °F 11 °F  
Max Temperature 21 °F 20 °F 38 °F (1990)
Min Temperature -4 °F - -31 °F (1977)
Degree Days  
Heating Degree Days 56 54  
Month to date heating degree days 1768 1432  
Since 1 July heating degree days 12167 10714  
Cooling Degree Days 0    
Month to date cooling degree days 0  
Year to date cooling degree days 0  
Moisture  
Dew Point 5 °F    
Average Humidity 0    
Maximum Humidity 0    
Minimum Humidity 0    
Precipitation  
Precipitation 0.00 in 0.02 in 0.22 in (1975)
Month to date precipitation 0.31 0.55  
Year to date precipitation 1.55 2.42  
Snow  
Snow 0.00 in 0.20 in 2.40 in (1975)
Month to date snowfall 6.2 7.6  
Since 1 July snowfall 72.8 64.3  
Snow Depth 26.00 in    
Sea Level Pressure  
Sea Level Pressure 29.63 in    
Wind  
Wind Speed 0 mph (North)    
Max Wind Speed 16 mph    
Max Gust Speed 20 mph    
Visibility 10 miles    
Events      
T = Trace of Precipitation, MM = Missing Value Source: NWS Daily Summary

Daily Weather History Graph

Daily Weather History Graph

Search for Another Location

Airport:

Trip Planner

Search our weather history database for the weather conditions in past years. The results will help you decide how hot, cold, wet, or windy it might be!

Date:

Astronomy

Mar. 26, 2012 Rise Set
Actual Time 8:37 AM AKDT 9:38 PM AKDT
Civil Twilight 7:48 AM AKDT 10:27 PM AKDT
Nautical Twilight 6:46 AM AKDT 11:30 PM AKDT
Astronomical Twilight 5:30 AM AKDT 12:48 AM AKDT
Moon 8:48 AM AKDT (3/26) 2:46 AM AKDT (3/26)
Length of Visible Light 14h 39m
Length of Day
13h 00m
Waxing Crescent, 15% of the Moon is Illuminated
Mar 26
Waxing Crescent
Mar 30
First Quarter
Apr 6
Full
Apr 13
Last Quarter
Apr 20
New

Hourly Weather History & Observations

Time (AKDT) Temp. Windchill Dew Point Humidity Pressure Visibility Wind Dir Wind Speed Gust Speed Precip Events Conditions
12:40 AM 10.4 °F -4.1 °F 8.6 °F 92% 29.71 in 10.0 mi North 11.5 mph - N/A   Mostly Cloudy
12:53 AM 10.0 °F -4.5 °F 6.1 °F 84% 29.71 in 10.0 mi North 11.5 mph - N/A   Mostly Cloudy
1:53 AM 5.0 °F -6.9 °F 3.0 °F 92% 29.70 in 10.0 mi North 6.9 mph - N/A   Mostly Cloudy
2:53 AM 3.9 °F -3.4 °F 1.9 °F 91% 29.68 in 10.0 mi NNE 3.5 mph - N/A   Scattered Clouds
3:53 AM 1.0 °F - -0.9 °F 91% 29.68 in 10.0 mi Calm Calm - N/A   Scattered Clouds
4:53 AM -0.9 °F - -4.0 °F 87% 29.66 in 10.0 mi Calm Calm - N/A   Scattered Clouds
5:53 AM 1.9 °F -11.8 °F -0.0 °F 91% 29.66 in 10.0 mi North 8.1 mph - N/A   Scattered Clouds
6:53 AM 1.9 °F -10.6 °F -0.0 °F 91% 29.65 in 10.0 mi North 6.9 mph - N/A   Scattered Clouds
8:53 AM 5.0 °F -4.1 °F 1.9 °F 87% 29.64 in 10.0 mi North 4.6 mph - N/A   Scattered Clouds
9:53 AM 6.1 °F -4.3 °F 1.9 °F 83% 29.63 in 10.0 mi North 5.8 mph - N/A   Scattered Clouds
10:53 AM 7.0 °F -4.5 °F 1.9 °F 80% 29.63 in 10.0 mi North 6.9 mph - N/A   Scattered Clouds
11:53 AM 15.1 °F 1.8 °F 8.1 °F 74% 29.63 in 10.0 mi North 11.5 mph - N/A   Scattered Clouds
12:53 PM 15.1 °F 4.2 °F 9.0 °F 77% 29.63 in 10.0 mi NNW 8.1 mph - N/A   Scattered Clouds
1:53 PM 15.1 °F 0.5 °F 9.0 °F 77% 29.63 in 10.0 mi NNW 13.8 mph - N/A   Partly Cloudy
2:53 PM 18.0 °F 6.9 °F 10.9 °F 74% 29.62 in 10.0 mi North 9.2 mph - N/A   Partly Cloudy
3:53 PM 18.0 °F 4.8 °F 10.0 °F 71% 29.63 in 10.0 mi North 12.7 mph - N/A   Partly Cloudy
4:53 PM 19.0 °F 6.1 °F 9.0 °F 65% 29.62 in 10.0 mi NNW 12.7 mph - N/A   Partly Cloudy
5:53 PM 18.0 °F 7.7 °F 9.0 °F 68% 29.61 in 10.0 mi NE 8.1 mph - N/A   Scattered Clouds
6:53 PM 18.0 °F 4.8 °F 8.1 °F 65% 29.60 in 10.0 mi NNE 12.7 mph - N/A   Scattered Clouds
7:53 PM 15.1 °F 1.8 °F 7.0 °F 70% 29.59 in 10.0 mi North 11.5 mph - N/A   Scattered Clouds
8:53 PM 12.9 °F -0.9 °F 3.9 °F 67% 29.58 in 10.0 mi North 11.5 mph - N/A   Mostly Cloudy
9:53 PM 12.9 °F -0.2 °F 5.0 °F 71% 29.58 in 10.0 mi North 10.4 mph - N/A   Mostly Cloudy
10:53 PM 12.9 °F -0.2 °F 3.9 °F 67% 29.58 in 10.0 mi North 10.4 mph - N/A   Mostly Cloudy
11:53 PM 10.9 °F -1.8 °F 3.0 °F 70% 29.57 in 10.0 mi North 9.2 mph - N/A   Mostly Cloudy